This is the latest recevied weather packets stored in our database for station/object KC4KQE. If no packets are shown the sender has not sent any weather packets the latest 10 day(s).
| Time | Temp. | Humidity | Pressure | Rain* | Wind** | Luminosity | Snow |
|---|---|---|---|---|---|---|---|
| 1777654757 | 24.44° C | 31% | 1013.2 hPa | 0 mm | - | 726 W/m² | - |
| 1777654457 | 23.89° C | 32% | 1013.3 hPa | 0 mm | - | 715 W/m² | - |
| 1777654157 | 24.44° C | 32% | 1013.3 hPa | 0 mm | - | 703 W/m² | - |
| 1777653857 | 23.89° C | 33% | 1013.4 hPa | 0 mm | - | 691 W/m² | - |
| 1777653557 | 24.44° C | 32% | 1013.4 hPa | 0 mm | - | 675 W/m² | - |
| 1777653257 | 23.89° C | 33% | 1013.3 hPa | 0 mm | - | 663 W/m² | - |
| 1777652957 | 23.89° C | 33% | 1013.3 hPa | 0 mm | - | 650 W/m² | - |
| 1777652657 | 23.89° C | 34% | 1013.3 hPa | 0 mm | - | 635 W/m² | - |
| 1777652357 | 23.89° C | 34% | 1013.3 hPa | 0 mm | - | 621 W/m² | - |
| 1777652057 | 23.89° C | 33% | 1013.3 hPa | 0 mm | - | 608 W/m² | - |
| 1777651457 | 23.33° C | 35% | 1013.2 hPa | 0 mm | - | 578 W/m² | - |
| 1777651157 | 23.33° C | 35% | 1013.3 hPa | 0 mm | - | 564 W/m² | - |
| 1777650857 | 23.33° C | 35% | 1013.2 hPa | 0 mm | - | 548 W/m² | - |
| 1777650557 | 23.33° C | 35% | 1013.1 hPa | 0 mm | - | 534 W/m² | - |
| 1777650257 | 23.33° C | 35% | 1013.1 hPa | 0 mm | - | 517 W/m² | - |
| 1777649958 | 22.78° C | 36% | 1013.1 hPa | 0 mm | - | 503 W/m² | - |
| 1777649657 | 22.78° C | 35% | 1013 hPa | 0 mm | - | 487 W/m² | - |
| 1777649357 | 22.22° C | 36% | 1013 hPa | 0 mm | - | 468 W/m² | - |
| 1777649059 | 22.78° C | 36% | 1012.9 hPa | 0 mm | - | 454 W/m² | - |
| 1777648757 | 22.22° C | 38% | 1012.9 hPa | 0 mm | - | 436 W/m² | - |
| 1777648458 | 22.22° C | 39% | 1012.8 hPa | 0 mm | - | 422 W/m² | - |
| 1777648158 | 22.22° C | 38% | 1012.7 hPa | 0 mm | - | 404 W/m² | - |
| 1777647857 | 22.22° C | 38% | 1012.7 hPa | 0 mm | - | 388 W/m² | - |
| 1777647557 | 21.67° C | 38% | 1012.7 hPa | 0 mm | - | 369 W/m² | - |
| 1777647257 | 21.67° C | 38% | 1012.6 hPa | 0 mm | - | 355 W/m² | - |
* Rain latest hour (hover to see other rain measurements)
** Current wind speed in m/s (hover to see current wind gust speed)